TRA6705 EHAM-GCFV

Flight info

Callsign TRA6705
Flight time N/A
Altitude 37000
Route WOODY N872 CIV DCT KOVIN DCT NIDUV DCT KIHVI DCT PON DCT DITAL DCT GODIX DCT DIDAK DCT KURIS DCT TERPO DCT ERIGA DCT FUJTI DCT BAKUP DCT BATAX DCT TAKAV DCT VEDOD UN857 TERTO
Aircraft B738/M-SDE2E3FGHIJ1RWXYZ/LB1

Departure

Time N/A
Airport Amsterdam Airport Schiphol (EHAM)

Arrival

Time 2026-05-05 16:38
Airport Fuerteventura Airport (GCFV)
Time Latitude Longitude Altitude Speed Heading
2026-05-05 16:01 30.65381 -12.29690 37052 ft 374 kts 214°
2026-05-05 16:01 30.63006 -12.30914 37051 ft 374 kts 214°
2026-05-05 16:02 30.58256 -12.33361 37052 ft 373 kts 214°
2026-05-05 16:02 30.53510 -12.35803 37051 ft 373 kts 214°
2026-05-05 16:03 30.49001 -12.38609 37044 ft 361 kts 224°
2026-05-05 16:03 30.44989 -12.42080 37049 ft 360 kts 225°
2026-05-05 16:04 30.40968 -12.45557 37051 ft 361 kts 225°
2026-05-05 16:04 30.37609 -12.48447 37052 ft 362 kts 224°
2026-05-05 16:05 30.33555 -12.51924 37051 ft 363 kts 224°
2026-05-05 16:05 30.29483 -12.55410 37046 ft 365 kts 224°
2026-05-05 16:06 30.25398 -12.58903 37048 ft 366 kts 224°
2026-05-05 16:06 30.21299 -12.62404 37044 ft 367 kts 224°
2026-05-05 16:07 30.17197 -12.65905 37045 ft 367 kts 224°
2026-05-05 16:07 30.13082 -12.69414 37040 ft 368 kts 224°
2026-05-05 16:08 30.08880 -12.72820 37042 ft 373 kts 219°
2026-05-05 16:08 30.04325 -12.75750 37039 ft 376 kts 217°
2026-05-05 16:09 29.99721 -12.78599 37041 ft 375 kts 217°
2026-05-05 16:09 29.95144 -12.81477 37037 ft 374 kts 218°
2026-05-05 16:10 29.90644 -12.84332 37033 ft 366 kts 218°
2026-05-05 16:10 29.86220 -12.87152 37005 ft 363 kts 218°
2026-05-05 16:10 29.84005 -12.88567 36716 ft 361 kts 218°
2026-05-05 16:11 29.81828 -12.89951 36344 ft 356 kts 218°
2026-05-05 16:11 29.75471 -12.93996 35256 ft 342 kts 218°
2026-05-05 16:12 29.73424 -12.95298 34876 ft 339 kts 218°
2026-05-05 16:12 29.69332 -12.97902 34079 ft 335 kts 218°
2026-05-05 16:13 29.63330 -13.01713 32955 ft 323 kts 217°
2026-05-05 16:13 29.61370 -13.02957 32603 ft 320 kts 217°
2026-05-05 16:13 29.59400 -13.04165 31946 ft 326 kts 216°
2026-05-05 16:14 29.55253 -13.06530 30732 ft 335 kts 214°
2026-05-05 16:14 29.51097 -13.08861 29957 ft 330 kts 214°
2026-05-05 16:15 29.47003 -13.11174 29036 ft 326 kts 214°
2026-05-05 16:15 29.42962 -13.13470 28135 ft 323 kts 214°
2026-05-05 16:16 29.38956 -13.15750 27162 ft 322 kts 214°
2026-05-05 16:16 29.34918 -13.18052 26086 ft 326 kts 214°
2026-05-05 16:17 29.30862 -13.20359 25174 ft 325 kts 213°
2026-05-05 16:17 29.28841 -13.21507 24737 ft 324 kts 213°
2026-05-05 16:18 29.24802 -13.23800 23868 ft 323 kts 213°
2026-05-05 16:18 29.22790 -13.24942 23413 ft 323 kts 213°
2026-05-05 16:18 29.18776 -13.27217 22459 ft 321 kts 213°
2026-05-05 16:19 29.16785 -13.28346 22000 ft 319 kts 213°
2026-05-05 16:19 29.14792 -13.29475 21528 ft 318 kts 213°
2026-05-05 16:19 29.10837 -13.31714 20632 ft 317 kts 213°
2026-05-05 16:20 29.06932 -13.33923 19791 ft 314 kts 212°
2026-05-05 16:20 29.03030 -13.36129 18993 ft 312 kts 212°
2026-05-05 16:21 28.99166 -13.38311 18249 ft 308 kts 212°
2026-05-05 16:22 28.93448 -13.41537 17003 ft 304 kts 212°
2026-05-05 16:22 28.89674 -13.43665 16196 ft 301 kts 212°
2026-05-05 16:23 28.85925 -13.45777 15412 ft 299 kts 212°
2026-05-05 16:23 28.84072 -13.46845 15032 ft 298 kts 212°
2026-05-05 16:23 28.80468 -13.48949 14554 ft 287 kts 213°
2026-05-05 16:24 28.78683 -13.49992 14306 ft 283 kts 213°
2026-05-05 16:24 28.76962 -13.50998 13997 ft 281 kts 213°
2026-05-05 16:24 28.73500 -13.53021 13311 ft 279 kts 213°
2026-05-05 16:25 28.71778 -13.54026 12977 ft 277 kts 213°
2026-05-05 16:25 28.68355 -13.56021 12301 ft 275 kts 212°
2026-05-05 16:25 28.66652 -13.57012 11970 ft 274 kts 212°
2026-05-05 16:26 28.63265 -13.58983 11311 ft 273 kts 212°
2026-05-05 16:26 28.59878 -13.60952 10624 ft 274 kts 211°
2026-05-05 16:27 28.58180 -13.61939 10302 ft 273 kts 211°
2026-05-05 16:27 28.56511 -13.62907 10143 ft 267 kts 211°
2026-05-05 16:27 28.54878 -13.63853 9965 ft 261 kts 211°
2026-05-05 16:27 28.53258 -13.64793 9652 ft 261 kts 211°
2026-05-05 16:28 28.51646 -13.65728 9344 ft 260 kts 211°
2026-05-05 16:28 28.50034 -13.66664 9041 ft 260 kts 211°
2026-05-05 16:28 28.48426 -13.67596 8709 ft 260 kts 211°
2026-05-05 16:28 28.46813 -13.68531 8400 ft 260 kts 211°
2026-05-05 16:29 28.45195 -13.69469 8084 ft 261 kts 210°
2026-05-05 16:29 28.43578 -13.70406 7761 ft 262 kts 210°
2026-05-05 16:29 28.41955 -13.71345 7430 ft 263 kts 210°
2026-05-05 16:29 28.40320 -13.72292 7096 ft 264 kts 210°
2026-05-05 16:30 28.38678 -13.73241 6780 ft 265 kts 210°
2026-05-05 16:30 28.37035 -13.74191 6467 ft 266 kts 210°
2026-05-05 16:30 28.35384 -13.75145 6119 ft 267 kts 209°
2026-05-05 16:30 28.33726 -13.76104 5821 ft 267 kts 210°
2026-05-05 16:31 28.32069 -13.77061 5521 ft 267 kts 209°
2026-05-05 16:31 28.30421 -13.78012 5238 ft 265 kts 209°
2026-05-05 16:31 28.28784 -13.78957 4980 ft 263 kts 209°
2026-05-05 16:31 28.27156 -13.79897 4791 ft 259 kts 208°
2026-05-05 16:32 28.25574 -13.80809 4667 ft 252 kts 208°
2026-05-05 16:32 28.24043 -13.81709 4545 ft 244 kts 215°
2026-05-05 16:32 28.22900 -13.83037 4444 ft 230 kts 244°
2026-05-05 16:32 28.22504 -13.84700 4370 ft 212 kts 272°
2026-05-05 16:33 28.22767 -13.86263 4197 ft 201 kts 294°
2026-05-05 16:33 28.23511 -13.87562 3957 ft 191 kts 323°
2026-05-05 16:33 28.24685 -13.87928 3787 ft 177 kts 11°
2026-05-05 16:33 28.25828 -13.87439 3584 ft 172 kts 14°
2026-05-05 16:34 28.26988 -13.87249 3382 ft 169 kts
2026-05-05 16:34 28.28154 -13.87054 3158 ft 168 kts
2026-05-05 16:34 28.29316 -13.86935 2932 ft 166 kts
2026-05-05 16:34 28.30440 -13.86875 2720 ft 157 kts
2026-05-05 16:35 28.31532 -13.86834 2519 ft 158 kts
2026-05-05 16:35 28.32616 -13.86797 2322 ft 152 kts
2026-05-05 16:35 28.33652 -13.86762 2114 ft 149 kts
2026-05-05 16:35 28.34690 -13.86728 1944 ft 149 kts
2026-05-05 16:36 28.35726 -13.86690 1742 ft 148 kts
2026-05-05 16:36 28.36752 -13.86655 1553 ft 148 kts
2026-05-05 16:36 28.37787 -13.86621 1325 ft 149 kts
2026-05-05 16:36 28.38828 -13.86581 1200 ft 150 kts
2026-05-05 16:37 28.39878 -13.86566 932 ft 153 kts
2026-05-05 16:37 28.40933 -13.86516 758 ft 151 kts
2026-05-05 16:37 28.41994 -13.86482 506 ft 150 kts
2026-05-05 16:37 28.43033 -13.86453 302 ft 150 kts
2026-05-05 16:38 28.44065 -13.86420 125 ft 145 kts
2026-05-05 16:38 28.45034 -13.86382 74 ft 126 kts
2026-05-05 16:38 28.45693 -13.86361 88 ft 57 kts
2026-05-05 16:38 28.45993 -13.86394 92 ft 40 kts 340°
2026-05-05 16:39 28.46140 -13.86508 99 ft 16 kts 271°
2026-05-05 16:39 28.46084 -13.86543 98 ft 10 kts 179°
2026-05-05 16:39 28.46011 -13.86545 97 ft 11 kts 181°
2026-05-05 16:39 28.45924 -13.86548 97 ft 14 kts 181°
2026-05-05 16:40 28.45813 -13.86552 97 ft 18 kts 182°
2026-05-05 16:40 28.45719 -13.86571 97 ft 12 kts 228°
2026-05-05 16:40 28.45714 -13.86663 100 ft 11 kts 272°
2026-05-05 16:40 28.45673 -13.86725 98 ft 11 kts 189°
2026-05-05 16:41 28.45611 -13.86731 98 ft 6 kts 211°
2026-05-05 16:41 28.45606 -13.86781 99 ft 7 kts 273°
2026-05-05 16:41 28.45607 -13.86823 98 ft 1 kts 271°